[[{"header":{"parameterUnit":"m.s-1","parameterCategory":1,"la1":30.2991,"la2":30.254,"lo1":-89.0895,"lo2":-89.0444,"dy":0.0017,"dx":0.0017,"nx":28,"ny":28,"refTime":"2023-10-20T21:00:00:Z","depth":0,"parameterNumber":2,"parameterNumberName":"U-component_of_WINDS"},"data":[0,0,0,0,0,0,0,0,0,0,0,0,0,0,0,0,0,0,0,0,0,0,0,0,0,0,0,0,0,0,0,0,0,0,0,0,0,0,0,0,0,0,0,0,0,0,0,0,0,0,0,0,0,0,0,0,0,0,0.3501,0.3501,0,0.3484,0.3484,0.3483,0.3452,0.3451,0.345,0.345,0.3433,0.3434,0.3434,0,0,0,0,0,0,0,0,0,0,0,0,0,0.3508,0.3508,0.3501,0.3501,0.3501,0.3484,0.3483,0.3483,0.3452,0.3451,0.345,0.345,0.3433,0.3434,0.3434,0,0,0,0,0,0,0,0,0,0,0,0,0,0.3499,0.3508,0.3501,0.3483,0.3481,0.3484,0.3483,0.3483,0.3452,0.3451,0.345,0.3449,0.3433,0.3434,0.3434,0.3453,0,0,0.3434,0.3434,0,0,0,0,0,0,0,0,0.35,0.3499,0.3486,0.3484,0.3482,0.3469,0.348,0.3473,0.3452,0.3463,0.345,0.3449,0.3446,0.3445,0.3444,0.3452,0.3452,0.3434,0.3434,0.3435,0.3435,0,0,0,0,0,0,0,0.3501,0.35,0.3494,0.3486,0.3483,0.3476,0.3474,0.3478,0.346,0.3462,0.346,0.3458,0.3445,0.3444,0.3443,0.3452,0.3434,0.3434,0.3435,0.3435,0.3475,0.3476,0,0,0,0,0,0,0.3504,0.35,0.3495,0.3494,0.3489,0.3476,0.3474,0.3474,0.346,0.3457,0.3459,0.3457,0.3444,0.3443,0.3443,0.3465,0.3435,0.3435,0.3435,0.3474,0.3475,0.3476,0,0,0,0,0,0,0.3504,0.3503,0.3496,0.3496,0.3495,0.3477,0.3478,0.3474,0.3473,0.3457,0.3454,0.3461,0.3443,0.3442,0.3451,0.3464,0.3435,0.3435,0.3473,0.3475,0.3476,0.351,0,0,0,0,0,0,0.3504,0.3504,0.3511,0.3497,0.3495,0.3504,0.3479,0.3475,0.3473,0.347,0.3459,0.3456,0.3442,0.3451,0.3451,0.3464,0.3435,0.3472,0.3474,0.3476,0.3507,0.3512,0.3516,0,0,0,0,0,0.3505,0.3521,0.3511,0.3511,0.3503,0.3505,0.3504,0.3488,0.3475,0.3482,0.3471,0.3456,0.3462,0.3452,0.3452,0.3465,0.3471,0.3473,0.3475,0.3505,0.3511,0.3516,0,0,0,0,0,0,0.3538,0.3519,0.3508,0.3521,0.3514,0.3499,0.3508,0.3494,0.3492,0.3489,0.347,0.3467,0.3478,0.3472,0.3461,0.3483,0.3464,0.3466,0.3487,0.3492,0.3497,0.3498,0.3435,0,0,0,0,0,0.3547,0.3549,0.3532,0.3545,0.3543,0.3526,0.3526,0.3514,0.3507,0.3504,0.3495,0.3489,0.3489,0.349,0.349,0.3506,0.3503,0.3515,0.3519,0.3523,0.3525,0.3534,0.3539,0.3484,0.3484,0.3484,0,0,0.3565,0.3555,0.3558,0.3552,0.3546,0.3549,0.3524,0.3528,0.3531,0.3505,0.3513,0.3505,0.3497,0.351,0.3515,0.3505,0.354,0.3525,0.3528,0.3529,0.3536,0.3542,0.3546,0.3485,0.3485,0.3485,0,0,0.3601,0.3593,0.3603,0.3597,0.3587,0.3576,0.3578,0.3565,0.3559,0.3566,0.3547,0.3549,0.355,0.3546,0.3544,0.3576,0.3562,0.3576,0.36,0.3608,0.3613,0.3617,0.3629,0.3634,0.3579,0.3579,0.3579,0,0.3625,0.3629,0.361,0.3615,0.3613,0.3589,0.3599,0.3595,0.3586,0.3585,0.3574,0.3575,0.3568,0.3579,0.3587,0.3586,0.3588,0.3578,0.3613,0.3617,0.362,0.3632,0.3637,0.3581,0.3581,0.358,0.358,0,0.3659,0.3662,0.3671,0.3663,0.3662,0.367,0.3652,0.3653,0.3641,0.3631,0.3638,0.3629,0.3626,0.3627,0.3616,0.3637,0.3631,0.3617,0.3598,0.3628,0.3639,0.3643,0.3583,0.3583,0.3582,0.3582,0,0,0.3717,0.3697,0.3701,0.3697,0.3684,0.3686,0.3693,0.369,0.3691,0.3686,0.3691,0.3692,0.3679,0.3676,0.3664,0.3671,0.3698,0.3656,0.3655,0.3665,0.3721,0.3733,0.3739,0.3688,0.3689,0.3689,0.3722,0,0.3751,0.3761,0.3744,0.3758,0.3761,0.3737,0.3743,0.3736,0.3726,0.3727,0.3716,0.3718,0.37,0.3698,0.3704,0.3694,0.3709,0.3691,0.3694,0.3694,0.3698,0.3744,0.3757,0.3788,0.3726,0.3727,0.3728,0,0.3792,0.3788,0.3802,0.3788,0.3789,0.3794,0.379,0.3791,0.3782,0.3775,0.3772,0.3756,0.3762,0.3742,0.3751,0.3738,0.3738,0.3733,0.3734,0.3735,0.3714,0.3747,0.3798,0.3803,0.3734,0.3733,0.3733,0,0.3834,0.3832,0.384,0.3837,0.3821,0.3826,0.3819,0.381,0.3809,0.3805,0.3804,0.3801,0.3799,0.3797,0.3782,0.3769,0.3792,0.3771,0.3787,0.3787,0.3794,0.3794,0.3847,0.3792,0.3792,0.3792,0.3791,0,0.3874,0.3885,0.3859,0.3864,0.3875,0.3854,0.3866,0.3857,0.3848,0.3852,0.3831,0.3835,0.3813,0.3814,0.3802,0.3811,0.381,0.3805,0.3802,0.3808,0.3808,0.3808,0.3806,0.3793,0.3793,0.3792,0.3792,0,0.3924,0.3907,0.3915,0.3898,0.3894,0.3903,0.3889,0.3894,0.3882,0.3887,0.3886,0.3868,0.3869,0.3853,0.385,0.3842,0.3857,0.3849,0.386,0.3858,0.3875,0.3874,0.393,0.3937,0.3877,0.3877,0.3878,0,0.3952,0.3959,0.3943,0.3943,0.3938,0.3939,0.3937,0.3917,0.3917,0.3907,0.3913,0.3911,0.391,0.3912,0.3899,0.3897,0.3889,0.3909,0.3889,0.3895,0.3891,0.3891,0.3892,0.3914,0.3915,0.3915,0.3916,0,0.4003,0.3994,0.3993,0.3988,0.3987,0.3983,0.3977,0.3979,0.3957,0.3957,0.3957,0.3956,0.3953,0.3952,0.3947,0.3941,0.3925,0.3922,0.3926,0.3933,0.3939,0.3937,0.3873,0.3921,0.3921,0.392,0.392,0.392,0.4044,0.4049,0.4038,0.4037,0.4031,0.4026,0.4029,0.4017,0.4017,0.4012,0.4,0.4002,0.3993,0.3985,0.398,0.3981,0.3972,0.3977,0.3978,0.398,0.3984,0.3937,0.398,0.398,0.398,0.398,0.398,0,0.4095,0.4087,0.4086,0.4078,0.4078,0.4061,0.4054,0.4055,0.4057,0.4049,0.4047,0.4047,0.4046,0.4032,0.4029,0.4033,0.4026,0.4034,0.4034,0.4033,0.3992,0.399,0.4039,0.4039,0.4039,0.4039,0.4039,0.4039,0.4122,0.413,0.412,0.4124,0.4116,0.4117,0.4114,0.411,0.4103,0.4104,0.4103,0.4093,0.4083,0.408,0.4078,0.4074,0.4075,0.4085,0.4078,0.4041,0.4036,0.403,0.4028,0.4085,0.4085,0.4119,0.4119,0.4119]},{"header":{"parameterUnit":"m.s-1","parameterCategory":1,"la1":30.2991,"la2":30.254,"lo1":-89.0895,"lo2":-89.0444,"dy":0.0017,"dx":0.0017,"nx":28,"ny":28,"refTime":"2023-10-20T21:00:00:Z","depth":0,"parameterNumber":3,"parameterNumberName":"V-component_of_WINDS"},"data":[0,0,0,0,0,0,0,0,0,0,0,0,0,0,0,0,0,0,0,0,0,0,0,0,0,0,0,0,0,0,0,0,0,0,0,0,0,0,0,0,0,0,0,0,0,0,0,0,0,0,0,0,0,0,0,0,0,0,0.101,0.101,0,0.0999,0.0999,0.0999,0.0992,0.0992,0.0992,0.0992,0.0981,0.0981,0.0981,0,0,0,0,0,0,0,0,0,0,0,0,0,0.1026,0.1026,0.101,0.101,0.101,0.0999,0.0999,0.0999,0.0992,0.0992,0.0992,0.0992,0.0981,0.0981,0.0981,0,0,0,0,0,0,0,0,0,0,0,0,0,0.1018,0.1026,0.101,0.1005,0.1005,0.0999,0.0999,0.0999,0.0992,0.0992,0.0992,0.0992,0.0981,0.0981,0.0981,0.0979,0,0,0.0979,0.0979,0,0,0,0,0,0,0,0,0.1018,0.1017,0.1006,0.1006,0.1005,0.0997,0.1,0.0992,0.0992,0.0997,0.0992,0.0992,0.0987,0.0986,0.0984,0.0978,0.0978,0.0979,0.0979,0.0979,0.0979,0,0,0,0,0,0,0,0.1019,0.1017,0.1006,0.1006,0.1005,0.1004,0.1003,0.0999,0.0992,0.0997,0.0996,0.0995,0.0986,0.0984,0.0983,0.0978,0.0979,0.0979,0.0979,0.0978,0.097,0.097,0,0,0,0,0,0,0.102,0.1018,0.1006,0.1005,0.1012,0.1004,0.1002,0.1,0.0992,0.0991,0.0995,0.0995,0.0985,0.0984,0.0983,0.098,0.0979,0.0978,0.0978,0.097,0.097,0.097,0,0,0,0,0,0,0.102,0.1019,0.1007,0.1012,0.101,0.1003,0.1001,0.1,0.0997,0.0991,0.099,0.0994,0.0985,0.0984,0.098,0.098,0.0978,0.0978,0.097,0.097,0.097,0.0975,0,0,0,0,0,0,0.1021,0.1019,0.1018,0.1012,0.101,0.1004,0.1001,0.0999,0.0997,0.0996,0.099,0.0989,0.0985,0.098,0.0979,0.0979,0.0978,0.097,0.097,0.097,0.0975,0.0975,0.0975,0,0,0,0,0,0.1021,0.102,0.1018,0.1017,0.1009,0.1004,0.1003,0.0998,0.0997,0.0996,0.0992,0.0989,0.098,0.098,0.0979,0.0979,0.097,0.097,0.097,0.0975,0.0975,0.0975,0,0,0,0,0,0,0.1028,0.1019,0.1017,0.1014,0.1009,0.1003,0.1001,0.0999,0.0995,0.0994,0.0989,0.0987,0.0984,0.0981,0.0981,0.0976,0.0975,0.0974,0.0979,0.0979,0.0979,0.098,0.0977,0,0,0,0,0,0.1028,0.1025,0.1018,0.1016,0.1014,0.1008,0.1006,0.1002,0.0998,0.0996,0.0991,0.0987,0.0983,0.0981,0.0977,0.0974,0.0973,0.0973,0.0974,0.0974,0.0974,0.0972,0.0972,0.097,0.097,0.097,0,0,0.103,0.1026,0.1024,0.1017,0.1013,0.101,0.1007,0.1003,0.1001,0.0995,0.0992,0.0988,0.0983,0.098,0.0978,0.0977,0.0974,0.0974,0.0974,0.0974,0.0972,0.0972,0.0972,0.097,0.097,0.097,0,0,0.1032,0.1028,0.1026,0.1022,0.1016,0.1012,0.1012,0.1005,0.1003,0.0999,0.0995,0.0992,0.0985,0.0982,0.0979,0.0979,0.0976,0.0978,0.098,0.0978,0.0978,0.0978,0.0978,0.0978,0.0978,0.0978,0.0978,0,0.1035,0.103,0.1025,0.1022,0.1019,0.1014,0.1011,0.1008,0.1001,0.1,0.0998,0.099,0.0986,0.0982,0.0982,0.098,0.0979,0.0979,0.0979,0.0979,0.0979,0.0979,0.0979,0.0978,0.0978,0.0978,0.0978,0,0.1034,0.1031,0.103,0.1023,0.102,0.1017,0.1012,0.1009,0.1006,0.1002,0.0998,0.0993,0.0988,0.0987,0.0984,0.0982,0.0982,0.098,0.0978,0.0979,0.0979,0.0979,0.0979,0.0978,0.0978,0.0978,0,0,0.104,0.103,0.103,0.1027,0.102,0.1017,0.1014,0.1009,0.1007,0.1003,0.1,0.0995,0.0993,0.0989,0.0986,0.0984,0.0985,0.0983,0.0982,0.0983,0.0982,0.0984,0.0984,0.0983,0.0983,0.0983,0.0983,0,0.1041,0.1035,0.103,0.1026,0.1023,0.1018,0.1015,0.101,0.1007,0.1003,0.0999,0.0995,0.0993,0.0991,0.0989,0.0985,0.0984,0.0985,0.098,0.098,0.0982,0.0984,0.0985,0.0986,0.0982,0.0982,0.0982,0,0.1041,0.1037,0.1032,0.1026,0.1024,0.1022,0.1016,0.1013,0.1008,0.1005,0.1002,0.0998,0.0995,0.0993,0.0988,0.0988,0.0986,0.0984,0.0984,0.0983,0.0981,0.0983,0.0985,0.0986,0.0982,0.0982,0.0982,0,0.1045,0.1038,0.1035,0.1032,0.1025,0.1023,0.102,0.1014,0.1012,0.1007,0.1005,0.1,0.0998,0.0994,0.0989,0.0988,0.0985,0.0983,0.0982,0.0982,0.0982,0.0982,0.0984,0.098,0.098,0.098,0.098,0,0.1047,0.1044,0.1037,0.1034,0.1031,0.1026,0.1023,0.1019,0.1015,0.1012,0.1007,0.1004,0.0998,0.0994,0.099,0.0987,0.0986,0.0983,0.0982,0.0984,0.0984,0.0982,0.0982,0.098,0.098,0.098,0.098,0,0.1051,0.1046,0.1042,0.1035,0.1033,0.1031,0.1025,0.1023,0.1018,0.1015,0.1013,0.1007,0.1003,0.0997,0.0991,0.0989,0.0985,0.0984,0.0987,0.0986,0.0986,0.0986,0.0987,0.0987,0.0984,0.0984,0.0984,0,0.1053,0.1051,0.1043,0.1041,0.1038,0.1034,0.1031,0.1025,0.1022,0.1016,0.1014,0.101,0.1005,0.0999,0.0993,0.0989,0.0987,0.0987,0.0986,0.0988,0.0987,0.0987,0.0987,0.0988,0.0988,0.0988,0.0988,0,0.1056,0.1053,0.1049,0.1044,0.1041,0.1036,0.1032,0.103,0.1024,0.1021,0.1016,0.1013,0.1006,0.1001,0.0996,0.0992,0.0989,0.0988,0.0988,0.099,0.0991,0.099,0.0988,0.0988,0.0988,0.0988,0.0988,0.0988,0.1059,0.1057,0.1051,0.1046,0.1042,0.1038,0.1036,0.1031,0.1027,0.1022,0.1018,0.1014,0.1008,0.1001,0.0997,0.0993,0.0992,0.0992,0.0992,0.0992,0.0992,0.0992,0.0992,0.0992,0.0992,0.0992,0.0992,0,0.1061,0.1057,0.1053,0.1047,0.1044,0.1041,0.1036,0.1033,0.1029,0.1024,0.102,0.1014,0.101,0.1004,0.0999,0.0997,0.0995,0.0996,0.0996,0.0995,0.0993,0.0994,0.0997,0.0997,0.0997,0.0997,0.0997,0.0997,0.1062,0.1058,0.1055,0.1049,0.1045,0.1041,0.1038,0.1034,0.103,0.1024,0.102,0.1017,0.1011,0.1006,0.1001,0.1,0.0998,0.0999,0.0997,0.0995,0.0995,0.0995,0.0995,0.0999,0.0999,0.0999,0.0999,0.0999]}]]